Weather History for PAIL - November, 2013

Change the Weather History Date:

Sunday, November 3, 2013

  Actual Average Record
Temperature  
Mean Temperature 42 °F -  
Max Temperature 46 °F 31 °F 52 °F (2002)
Min Temperature 39 °F 19 °F -8 °F (1975)
Degree Days  
Heating Degree Days 22    
Moisture  
Dew Point 39 °F    
Average Humidity 77    
Maximum Humidity 86    
Minimum Humidity 65    
Precipitation  
Precipitation 0.01 in - - ()
Sea Level Pressure  
Sea Level Pressure 29.56 in    
Wind  
Wind Speed 16 mph (East)    
Max Wind Speed 21 mph    
Max Gust Speed 29 mph    
Visibility 10 miles    
Events Rain    
Averages and records for this station are not official NWS values.
T = Trace of Precipitation, MM = Missing Value Source: NWS Daily Summary

Daily Weather History Graph

Daily Weather History Graph

Search for Another Location

Airport or City:

Trip Planner

Search our weather history database for the weather conditions in past years. The results will help you decide how hot, cold, wet, or windy it might be!

Date:

Astronomy

Nov. 03, 2013 Rise Set
Actual Time 8:47 AM AKST 5:18 PM AKST
Civil Twilight 8:01 AM AKST 6:03 PM AKST
Nautical Twilight 7:12 AM AKST 6:53 PM AKST
Astronomical Twilight 6:24 AM AKST 7:40 PM AKST
Moon 9:10 AM AKST (11/3) 5:30 PM AKST (11/3)
Length of Visible Light 10h 01m
Length of Day
8h 31m
New Moon, 0% of the Moon is Illuminated
Nov 3
New Moon
Nov 9
First Quarter
Nov 17
Full
Nov 25
Last Quarter
Dec 2
New

Hourly Weather History & Observations

Time (AKST) Temp. Windchill Dew Point Humidity Pressure Visibility Wind Dir Wind Speed Gust Speed Precip Events Conditions
1:53 AM 44.1 °F 36.2 °F 37.9 °F 79% 29.66 in 10.0 mi East 18.4 mph 27.6 mph 0.00 in   Overcast
1:53 AM 43.0 °F 34.2 °F 39.0 °F 86% 29.66 in 10.0 mi East 20.7 mph 26.5 mph 0.01 in Rain Light Rain
3:53 AM 44.1 °F 37.4 °F 39.0 °F 82% 29.65 in 10.0 mi East 13.8 mph 20.7 mph 0.00 in   Overcast
4:53 AM 45.0 °F 37.4 °F 37.9 °F 76% 29.63 in 10.0 mi ESE 18.4 mph 24.2 mph 0.00 in   Overcast
6:17 AM 44.6 °F 37.8 °F 39.2 °F 81% 29.62 in 10.0 mi East 15.0 mph 24.2 mph N/A   Overcast
6:53 AM 45.0 °F 38.5 °F 39.0 °F 80% 29.62 in 10.0 mi East 13.8 mph - N/A   Overcast
7:53 AM 45.0 °F 38.2 °F 39.0 °F 80% 29.62 in 10.0 mi East 15.0 mph 25.3 mph N/A   Overcast
8:53 AM 45.0 °F 38.2 °F 39.9 °F 82% 29.62 in 10.0 mi ENE 15.0 mph - N/A   Overcast
9:53 AM 45.0 °F 39.3 °F 39.0 °F 80% 29.61 in 10.0 mi East 11.5 mph - N/A   Overcast
10:13 AM 46.4 °F 39.8 °F 39.2 °F 76% 29.60 in 10.0 mi East 16.1 mph - N/A   Overcast
10:53 AM 46.0 °F 39.0 °F 39.9 °F 79% 29.60 in 10.0 mi East 17.3 mph - N/A   Overcast
11:53 AM 46.9 °F - 39.9 °F 77% 29.59 in 10.0 mi East 19.6 mph - N/A   Overcast
12:53 PM 46.9 °F - 39.9 °F 77% 29.58 in 10.0 mi East 13.8 mph - N/A   Overcast
1:53 PM 46.9 °F - 39.9 °F 77% 29.56 in 10.0 mi ESE 16.1 mph - N/A   Overcast
2:53 PM 46.9 °F - 39.0 °F 74% 29.54 in 10.0 mi ESE 15.0 mph 26.5 mph N/A   Overcast
3:53 PM 46.0 °F 39.3 °F 39.0 °F 76% 29.53 in 10.0 mi ESE 16.1 mph 28.8 mph N/A   Overcast
4:53 PM 46.0 °F 40.2 °F 39.0 °F 76% 29.51 in 10.0 mi ESE 12.7 mph 25.3 mph N/A   Mostly Cloudy
5:53 PM 46.9 °F - 39.0 °F 74% 29.50 in 10.0 mi East 11.5 mph 24.2 mph N/A   Mostly Cloudy
6:53 PM 46.9 °F - 39.0 °F 74% 29.49 in 10.0 mi East 11.5 mph 24.2 mph N/A   Overcast
7:53 PM 46.0 °F 40.6 °F 39.0 °F 76% 29.48 in 10.0 mi East 11.5 mph 25.3 mph N/A   Overcast
8:27 PM 46.4 °F 41.1 °F 39.2 °F 76% 29.46 in 10.0 mi East 11.5 mph 24.2 mph N/A   Overcast
8:53 PM 46.0 °F 40.6 °F 39.0 °F 76% 29.47 in 10.0 mi East 11.5 mph 24.2 mph N/A   Overcast
9:53 PM 45.0 °F 37.6 °F 39.0 °F 80% 29.46 in 10.0 mi East 17.3 mph 23.0 mph N/A   Overcast
10:53 PM 45.0 °F - 39.0 °F 80% 29.45 in 10.0 mi North - - N/A   Overcast